This demonstration page uses our WeatherBlox Daily Observations layout. Learn more.

Left ArrowRight Arrow

53.62937, 11.41316

Hourly Observations for December 31, 2016

Temp ( °F °C ) Dew Point ( °F °C ) Humidity (%) Winds ( mph kmh ) Pressure ( in mb ) Visibility ( mi km ) Precip ( " mm )
12:20 am 00:20 Partly Cloudy 32 0 28 -2 87 87 SW 7 11 30.45 1031 4 7 N/A
1:20 am 01:20 Partly Cloudy 32 0 28 -2 87 87 SW 7 11 30.42 1030 4 6 N/A
2:20 am 02:20 Partly Cloudy 32 0 28 -2 87 87 W 7 11 30.42 1030 4 6 N/A
3:20 am 03:20 Mostly Cloudy 32 0 30 -1 93 93 WSW 8 13 30.42 1030 3 5 N/A
4:20 am 04:20 Mostly Cloudy 32 0 30 -1 93 93 WSW 7 11 30.39 1029 3 5 N/A
5:20 am 05:20 Mostly Cloudy 32 0 30 -1 93 93 WSW 7 11 30.39 1029 2 4 N/A
6:20 am 06:20 Cloudy 32 0 30 -1 93 93 WSW 6 9 30.36 1028 1 1 N/A
6:25 am 06:25 Cloudy with Mist and Fog 32 0 30 -1 93 93 WSW 6 9 30.36 1028 1 2 N/A
6:35 am 06:35 Cloudy with Mist and Fog 32 0 30 -1 93 93 WSW 5 7 30.36 1028 1 1 N/A
6:55 am 06:55 Cloudy with Freezing Fog 32 0 30 -1 93 93 WSW 7 11 30.36 1028 0 1 N/A
7:20 am 07:20 Mostly Cloudy with Freezing Fog 32 0 30 -1 93 93 WSW 8 13 30.36 1028 0 0 N/A
8:20 am 08:20 Mostly Cloudy with Freezing Fog 32 0 30 -1 93 93 WSW 8 13 30.36 1028 0 0 N/A
9:20 am 09:20 Mostly Cloudy with Freezing Fog 32 0 30 -1 93 93 WSW 8 13 30.36 1028 0 0 N/A
10:20 am 10:20 Mostly Cloudy with Freezing Fog 32 0 30 -1 93 93 WSW 10 17 30.33 1027 0 0 N/A
11:20 am 11:20 Mostly Cloudy with Fog 32 0 32 0 100 100 WSW 12 19 30.33 1027 0 0 N/A
12:20 pm 12:20 Mostly Cloudy with Fog 34 1 32 0 93 93 WSW 9 15 30.30 1026 0 0 N/A
12:50 pm 12:50 Mostly Cloudy with Fog 34 1 32 0 93 93 WSW 10 17 30.30 1026 0 1 N/A
1:20 pm 13:20 Mostly Cloudy with Fog 34 1 34 1 100 100 WSW 9 15 30.30 1026 0 1 N/A
2:20 pm 14:20 Mostly Cloudy with Fog 34 1 34 1 100 100 SW 8 13 30.27 1025 0 0 N/A
3:20 pm 15:20 Mostly Cloudy with Fog 34 1 34 1 100 100 SW 9 15 30.27 1025 0 0 N/A
4:20 pm 16:20 Mostly Cloudy with Fog 36 2 34 1 93 93 WSW 10 17 30.24 1024 0 0 N/A
4:42 pm 16:42 Mostly Cloudy with Fog 36 2 34 1 93 93 SW 12 19 30.24 1024 1 1 N/A
5:20 pm 17:20 Mostly Cloudy with Fog 36 2 36 2 100 100 SW 10 17 30.24 1024 1 1 N/A
6:20 pm 18:20 Cloudy with Mist and Fog 37 3 36 2 93 93 WSW 14 22 30.21 1023 1 1 N/A
7:02 pm 19:02 Mostly Cloudy with Fog 37 3 36 2 93 93 SW 12 19 30.21 1023 0 1 N/A
7:20 pm 19:20 Mostly Cloudy with Fog 36 2 36 2 100 100 SW 12 19 30.21 1023 0 1 N/A
8:20 pm 20:20 Cloudy with Mist and Fog 37 3 36 2 93 93 WSW 12 19 30.18 1022 1 1 N/A
8:37 pm 20:37 Cloudy with Drizzle 37 3 36 2 93 93 WSW 13 20 30.18 1022 1 2 N/A
9:20 pm 21:20 Cloudy 37 3 36 2 93 93 SW 10 17 30.18 1022 1 1 N/A
10:20 pm 22:20 Mostly Cloudy 37 3 37 3 100 100 WSW 10 17 30.15 1021 1 1 N/A
11:20 pm 23:20 Cloudy 37 3 36 2 93 93 SW 9 15 30.12 1020 1 1 N/A

Powered by AerisWeather